Regional Weather Roundup
Issued by NWS

Home | Current Version | Previous Version | Text Only | Print | Product List | Glossary On
Versions: 1 2 3 4 5 6 7 8 9 10 11 12 13 14 15 16 17 18 19 20 21 22 23 24 25 26 27 28 29 30 31 32 33 34 35 36 37 38 39 40 41 42 43 44 45 46 47 48 49 50
000
ASUS44 KJAN 222110
RWRMS

MISSISSIPPI HOURLY WEATHER ROUNDUP
NATIONAL WEATHER SERVICE JACKSON MS
400 PM CDT WED OCT 22 2014

NOTE: "FAIR: INDICATES FEW OR NO CLOUDS BELOW 12,000 FEET WITH NO
SIGNIFICANT WEATHER AND/OR OBSTRUCTIONS TO VISIBILITY.

MSZ001>002-007>008-010>013-018>021-025>028-034>036-222200-
NORTHWEST MISSISSIPPI

CITY           SKY/WX    TMP DP  RH WIND       PRES   REMARKS
CLARKSDALE     FAIR      68  43  40 N12       30.16F
CLEVELAND      FAIR      71  45  39 N8        30.14S
GREENWOOD      SUNNY     71  44  37 N7        30.13F
GREENVILLE     SUNNY     73  42  32 NE13      30.13S
GRENADA          N/A    N/A N/A N/A MISG        N/A
OLIVE BRANCH   SUNNY     66  43  42 NE8       30.18F
OXFORD         FAIR      66  43  42 NE9       30.18S
TUNICA         CLEAR     68  41  37 NE9       30.17F
$$

MSZ003>006-009-014>017-022>024-029>033-037>039-222200-
NORTHEAST MISSISSIPPI

CITY           SKY/WX    TMP DP  RH WIND       PRES   REMARKS
COLUMBUS AFB   SUNNY     70  40  34 N7        30.13S
CORINTH        FAIR      66  41  39 N9        30.16S
GOLDN TRIANGLE SUNNY     70  43  37 NE12      30.12F
STARKVILLE     FAIR      68  45  42 N5        30.12F
TUPELO         SUNNY     68  43  40 NE12      30.15S
$$

MSZ040-058-222200-
CENTRAL MISSISSIPPI

CITY           SKY/WX    TMP DP  RH WIND       PRES   REMARKS
JACKSON INTL   SUNNY     75  47  36 N12       30.09F
JACKSON HAWKNS SUNNY     75  46  35 N8        30.09F
MERIDIAN KEY   SUNNY     72  42  34 NE9       30.09S
MERIDIAN NAS   SUNNY     72  41  32 N10       30.10S
RAYMOND        FAIR      75  70  83 N8        30.10S
VICKSBURG      SUNNY     76  49  38 NE10      30.10F
$$

MSZ059>079-222200-
SOUTH MISSISSIPPI

CITY           SKY/WX    TMP DP  RH WIND       PRES   REMARKS
BROOKHAVEN     FAIR      77  48  36 N9        30.08F
COLUMBIA         N/A    N/A N/A N/A MISG        N/A
HATTIESBURG    SUNNY     77  49  37 NE8       30.06F
MCCOMB         SUNNY     78  45  30 NE8       30.06F
NATCHEZ        SUNNY     75  52  43 NW10      30.08F
PINE BELT      SUNNY     75  46  35 N10       30.08F
$$

MSZ080>082-222200-
COASTAL MISSISSIPPI

CITY           SKY/WX    TMP DP  RH WIND       PRES   REMARKS
BAY ST LOUIS   SUNNY     81  45  28 NE8       30.02F
BILOXI         SUNNY     79  52  37 NE12      30.02S
PASCAGOULA     SUNNY     79  49  34 N9        30.02S
GULFPORT       SUNNY     79  50  36 N9        30.01F
$$



USA.gov is the U.S. government's official web portal to all federal, state and local government web resources and services.